Time,TemperatureF,DewpointF,PressureIn,WindDirection,WindDirectionDegrees,WindSpeedMPH,WindSpeedGustMPH,Humidity,HourlyPrecipIn,Conditions,Clouds,dailyrainin,SoftwareType,DateUTC
2013-08-09 00:22:00,67.0,67.0,-100.00,SW,225,0.0,1.0,97,0.00,,,-99.99,,2013-08-09 04:22:00,
2013-08-09 01:22:00,66.0,66.0,-100.00,South,170,1.0,1.0,97,0.00,,,-99.99,,2013-08-09 05:22:00,
2013-08-09 01:33:00,66.0,66.0,-100.00,West,260,0.0,1.0,97,0.00,,,-99.99,,2013-08-09 05:33:00,
2013-08-09 01:43:00,66.0,66.0,-100.00,South,185,0.0,1.0,97,0.00,,,-99.99,,2013-08-09 05:43:00,
2013-08-09 01:52:00,66.0,66.0,-100.00,West,275,0.0,1.0,97,0.00,,,-99.99,,2013-08-09 05:52:00,
2013-08-09 02:01:00,66.0,65.0,-100.00,NW,325,1.0,1.0,97,0.00,,,-99.99,,2013-08-09 06:01:00,
2013-08-09 02:22:00,67.0,67.0,-100.00,East,85,1.0,2.0,97,0.00,,,-99.99,,2013-08-09 06:22:00,
2013-08-09 03:22:00,67.0,67.0,-100.00,WSW,240,0.0,1.0,97,0.00,,,-99.99,,2013-08-09 07:22:00,
2013-08-09 03:33:00,67.0,67.0,-100.00,ESE,110,1.0,2.0,97,0.00,,,-99.99,,2013-08-09 07:33:00,
2013-08-09 03:43:00,67.0,67.0,-100.00,ESE,110,1.0,2.0,97,0.00,,,-99.99,,2013-08-09 07:43:00,
2013-08-09 03:53:00,67.0,67.0,-100.00,ESE,110,1.0,2.0,97,0.00,,,-99.99,,2013-08-09 07:53:00,
2013-08-09 04:12:00,67.0,67.0,-100.00,NNE,20,0.0,1.0,97,0.00,,,-99.99,,2013-08-09 08:12:00,
2013-08-09 04:22:00,67.0,67.0,-100.00,NNE,20,0.0,0.0,97,0.03,,,-99.99,,2013-08-09 08:22:00,
2013-08-09 04:32:00,67.0,67.0,-100.00,South,190,0.0,1.0,97,0.00,,,-99.99,,2013-08-09 08:32:00,
2013-08-09 04:43:00,67.0,67.0,-100.00,South,190,1.0,2.0,97,0.00,,,-99.99,,2013-08-09 08:43:00,
2013-08-09 05:43:00,67.0,67.0,-100.00,South,190,1.0,3.0,97,0.03,,,-99.99,,2013-08-09 09:43:00,
2013-08-09 06:22:00,68.0,67.0,-100.00,SSE,150,2.0,4.0,97,0.00,,,-99.99,,2013-08-09 10:22:00,
2013-08-09 06:32:00,68.0,67.0,-100.00,East,90,1.0,4.0,97,0.00,,,-99.99,,2013-08-09 10:32:00,
2013-08-09 06:43:00,68.0,67.0,-100.00,ESE,120,1.0,3.0,97,0.00,,,-99.99,,2013-08-09 10:43:00,
2013-08-09 07:02:00,68.0,67.0,-100.00,SSE,165,1.0,1.0,97,0.00,,,-99.99,,2013-08-09 11:02:00,
2013-08-09 07:11:00,68.0,67.0,-100.00,WSW,240,0.0,1.0,97,0.00,,,-99.99,,2013-08-09 11:11:00,
2013-08-09 07:22:00,68.0,67.0,-100.00,WNW,300,0.0,1.0,97,0.00,,,-99.99,,2013-08-09 11:22:00,
2013-08-09 07:33:00,68.0,67.0,-100.00,SSE,165,0.0,1.0,97,0.00,,,-99.99,,2013-08-09 11:33:00,
2013-08-09 07:43:00,69.0,68.0,-100.00,NE,45,0.0,2.0,97,0.00,,,-99.99,,2013-08-09 11:43:00,
2013-08-09 08:22:00,70.0,69.0,-100.00,South,180,0.0,2.0,97,0.00,,,-99.99,,2013-08-09 12:22:00,
2013-08-09 08:43:00,70.0,70.0,-100.00,West,265,1.0,3.0,97,0.00,,,-99.99,,2013-08-09 12:43:00,
2013-08-09 09:32:00,71.0,70.0,-100.00,West,270,0.0,3.0,97,0.00,,,-99.99,,2013-08-09 13:32:00,
2013-08-09 09:43:00,71.0,70.0,-100.00,SW,230,0.0,4.0,97,0.00,,,-99.99,,2013-08-09 13:43:00,
2013-08-09 09:52:00,71.0,70.0,-100.00,SSE,165,1.0,3.0,97,0.00,,,-99.99,,2013-08-09 13:52:00,
2013-08-09 10:02:00,71.0,70.0,-100.00,SW,235,0.0,2.0,97,0.00,,,-99.99,,2013-08-09 14:02:00,
2013-08-09 10:22:00,71.0,71.0,-100.00,WSW,245,0.0,5.0,97,0.00,,,-99.99,,2013-08-09 14:22:00,
2013-08-09 10:33:00,71.0,70.0,-100.00,NW,315,1.0,5.0,97,0.00,,,-99.99,,2013-08-09 14:33:00,
2013-08-09 11:33:00,70.0,69.0,-100.00,SW,215,1.0,2.0,96,0.21,,,-99.99,,2013-08-09 15:33:00,
2013-08-09 11:44:00,70.0,69.0,-100.00,WNW,295,0.0,2.0,96,1.13,,,-99.99,,2013-08-09 15:44:00,
2013-08-09 12:43:00,69.0,69.0,-100.00,WSW,250,0.0,2.0,97,0.24,,,-99.99,,2013-08-09 16:43:00,
2013-08-09 12:53:00,69.0,69.0,-100.00,SSE,150,1.0,4.0,97,0.16,,,-99.99,,2013-08-09 16:53:00,
2013-08-09 13:22:00,69.0,69.0,-100.00,North,350,1.0,2.0,97,0.17,,,-99.99,,2013-08-09 17:22:00,
2013-08-09 13:43:00,70.0,69.0,-100.00,NE,35,1.0,3.0,97,0.23,,,-99.99,,2013-08-09 17:43:00,
2013-08-09 14:01:00,70.0,69.0,-100.00,South,175,1.0,3.0,97,0.18,,,-99.99,,2013-08-09 18:01:00,
2013-08-09 14:22:00,70.0,69.0,-100.00,NNW,345,1.0,2.0,96,0.01,,,-99.99,,2013-08-09 18:22:00,
2013-08-09 14:53:00,70.0,69.0,-100.00,NE,45,0.0,1.0,96,0.10,,,-99.99,,2013-08-09 18:53:00,
2013-08-09 15:02:00,70.0,69.0,-100.00,ESE,120,1.0,2.0,96,0.04,,,-99.99,,2013-08-09 19:02:00,
2013-08-09 15:11:00,70.0,69.0,-100.00,East,95,1.0,2.0,96,0.10,,,-99.99,,2013-08-09 19:11:00,
2013-08-09 15:22:00,70.0,69.0,-100.00,East,100,0.0,2.0,96,0.11,,,-99.99,,2013-08-09 19:22:00,
2013-08-09 15:32:00,70.0,69.0,-100.00,SSE,155,1.0,2.0,96,0.14,,,-99.99,,2013-08-09 19:32:00,
2013-08-09 15:43:00,70.0,69.0,-100.00,WSW,240,0.0,3.0,96,0.00,,,-99.99,,2013-08-09 19:43:00,
2013-08-09 16:11:00,70.0,69.0,-100.00,South,170,0.0,2.0,96,0.00,,,-99.99,,2013-08-09 20:11:00,
2013-08-09 16:22:00,70.0,69.0,-100.00,NE,55,1.0,1.0,96,0.00,,,-99.99,,2013-08-09 20:22:00,
2013-08-09 17:01:00,68.0,65.0,-100.00,SE,135,2.0,9.0,90,0.01,,,-99.99,,2013-08-09 21:01:00,
2013-08-09 18:42:00,70.0,66.0,-100.00,NW,320,4.0,6.0,86,0.00,,,-99.99,,2013-08-09 22:42:00,
2013-08-09 19:22:00,71.0,67.0,-100.00,SSE,165,0.0,2.0,87,0.00,,,-99.99,,2013-08-09 23:22:00,
2013-08-09 19:32:00,71.0,67.0,-100.00,WSW,245,0.0,2.0,88,0.00,,,-99.99,,2013-08-09 23:32:00,
2013-08-09 19:52:00,69.0,67.0,-100.00,WSW,240,0.0,1.0,94,0.00,,,-99.99,,2013-08-09 23:52:00,
2013-08-09 20:01:00,69.0,67.0,-100.00,SW,225,0.0,1.0,95,0.00,,,-99.99,,2013-08-10 00:01:00,
2013-08-09 20:11:00,69.0,67.0,-100.00,SW,225,0.0,1.0,95,0.00,,,-99.99,,2013-08-10 00:11:00,
2013-08-09 20:22:00,68.0,67.0,-100.00,South,190,0.0,2.0,96,0.00,,,-99.99,,2013-08-10 00:22:00,
2013-08-09 21:22:00,66.0,66.0,-100.00,ENE,75,1.0,1.0,97,0.00,,,-99.99,,2013-08-10 01:22:00,
2013-08-09 22:21:00,66.0,65.0,-100.00,SSE,165,3.0,4.0,97,0.00,,,-99.99,,2013-08-10 02:21:00,
2013-08-09 22:52:00,66.0,65.0,-100.00,WSW,250,0.0,1.0,97,0.00,,,-99.99,,2013-08-10 02:52:00,